Theta_e
345 344 344 343 342 340 340 339 340 342 342 342 342 342 340 339 337 337 336 335 339 342 345 346 347 346 345 346 346 347 348 347 346 345 346 347 347 339 334 337 337 338 339 339 339 339 337 334 335 337 336 336 337 337 338 338 337 337 335 336 339 338 335 336 335 334 336 339 341 340 339 338 336 336 338 339 340 341 340 338 336 335 333 332 332
347 346 346 345 344 342 341 341 341 343 344 344 343 342 342 342 338 336 336 335 336 341 346 347 347 347 346 346 346 346 347 346 343 344 345 346 348 342 334 336 338 338 339 339 340 340 338 335 332 334 335 334 333 333 335 337 337 337 335 333 337 338 336 335 335 335 334 336 338 339 340 340 338 336 336 337 339 341 341 340 339 338 336 335 333
346 347 346 347 347 345 344 342 343 344 345 343 343 343 343 342 339 337 338 338 339 343 347 348 348 347 347 347 345 346 346 344 343 343 344 346 348 345 338 334 336 337 338 339 340 340 340 337 334 331 331 332 330 330 331 333 335 336 335 333 334 335 335 335 334 334 334 334 334 334 335 337 338 339 338 337 337 339 340 341 341 340 339 338 337
346 346 346 347 347 346 346 345 345 345 345 344 344 343 342 341 340 340 340 341 342 343 346 348 348 347 347 346 345 346 344 342 343 343 344 345 346 347 344 337 334 337 338 339 339 340 340 340 338 333 330 329 329 330 330 331 332 334 335 334 333 332 332 333 331 332 333 333 333 332 332 332 333 337 340 340 339 337 337 339 341 342 341 340 340
345 346 346 346 346 346 346 346 346 346 346 346 345 344 342 342 342 342 343 343 343 343 346 347 347 347 347 346 345 345 343 342 343 344 344 345 345 347 348 343 338 336 336 338 339 340 340 340 340 339 336 332 329 328 329 330 331 332 334 334 332 331 330 330 329 330 330 330 331 332 332 331 330 330 334 338 340 340 338 337 339 341 341 341 341
345 346 346 346 346 346 346 346 347 346 346 346 346 345 344 344 343 344 344 343 344 345 347 347 346 347 346 345 345 345 344 342 343 344 344 345 347 347 349 348 345 340 338 337 337 339 339 339 340 340 340 338 335 332 330 329 330 331 332 332 332 333 334 332 330 329 328 328 328 329 329 331 331 330 330 331 334 338 340 340 339 339 339 340 341
347 346 346 347 347 346 346 346 346 346 346 346 345 345 344 344 344 344 344 344 345 347 348 347 347 347 346 346 346 345 345 344 343 344 344 345 347 347 348 349 349 347 344 341 338 337 339 339 339 339 339 340 339 339 336 332 330 331 331 332 332 333 336 337 334 331 329 328 328 327 327 328 330 331 331 330 330 331 334 338 340 340 340 340 340
348 347 347 347 347 346 346 346 346 345 345 345 344 344 344 344 345 344 345 346 347 348 347 347 347 347 347 346 346 346 345 345 345 344 345 346 346 347 348 349 349 348 345 344 342 338 337 338 338 338 338 338 339 340 340 338 336 334 332 332 332 332 335 338 338 335 334 331 329 329 328 327 328 329 331 332 332 331 331 332 335 338 340 342 341
348 348 347 348 347 347 346 346 346 345 345 346 345 345 345 346 346 345 346 347 347 347 347 346 346 346 346 345 346 346 346 346 346 346 347 347 346 346 347 348 349 345 343 345 346 343 338 336 337 337 338 338 338 339 339 339 340 339 338 335 334 333 333 337 339 339 339 337 335 334 333 330 328 328 329 331 332 333 332 331 332 333 336 338 340
348 348 348 348 347 347 347 346 346 346 347 347 347 348 348 348 348 346 347 347 347 347 346 346 346 345 345 346 346 347 347 347 347 347 347 346 346 346 347 349 348 348 347 346 345 345 341 337 337 337 337 338 339 340 339 339 339 339 340 339 339 338 336 337 338 339 340 340 339 339 338 335 332 330 328 330 331 332 333 333 333 333 332 333 334
348 348 348 348 347 347 347 346 347 347 347 348 349 348 349 348 347 345 345 346 347 348 347 347 346 346 346 346 347 347 347 347 347 347 347 346 346 346 347 348 349 350 349 347 346 345 342 339 337 336 337 338 340 342 342 341 341 340 339 339 340 340 340 340 340 340 340 340 341 342 342 340 339 336 331 330 331 332 333 333 333 333 334 332 331
348 348 348 347 346 346 347 348 349 349 348 349 348 348 347 347 347 344 342 343 344 346 348 347 347 347 348 347 347 347 347 347 346 346 346 346 347 346 348 348 348 350 350 349 349 346 342 339 337 338 339 340 340 342 343 343 342 341 339 338 339 339 340 341 342 342 342 342 342 342 343 343 343 341 337 334 332 333 335 334 334 333 334 335 333
348 348 347 347 347 347 348 348 349 349 349 348 347 348 347 345 347 346 343 343 344 346 347 347 347 348 348 348 347 347 346 347 347 345 345 346 346 347 348 349 348 349 350 350 350 348 345 341 339 342 343 343 342 342 342 342 342 342 342 340 339 339 339 340 341 342 343 343 343 342 343 343 343 343 342 340 336 334 336 336 335 334 334 334 335
347 347 347 347 347 347 348 349 349 348 347 347 346 347 346 346 347 346 344 346 347 348 347 347 348 348 347 346 346 347 347 347 346 345 344 345 346 347 347 348 349 349 349 350 350 349 347 345 345 346 346 345 345 344 343 342 342 342 342 342 341 341 340 341 342 342 343 343 343 343 343 343 343 343 344 344 341 338 338 338 337 337 336 335 334
348 348 347 347 347 346 347 349 348 346 346 345 345 345 345 346 346 345 346 347 348 348 346 346 347 347 347 348 347 346 346 345 345 345 345 346 346 347 347 348 349 349 349 350 350 349 349 348 349 349 348 346 346 347 346 344 343 342 342 342 342 342 342 342 342 343 343 343 343 343 342 342 343 343 343 344 343 342 340 339 339 339 338 337 336
347 348 347 347 346 346 349 349 347 345 344 345 345 344 344 346 345 344 347 348 348 348 346 345 349 349 347 347 347 346 346 345 346 345 346 347 346 345 346 347 348 349 349 349 350 349 350 350 350 350 348 346 345 346 347 347 345 343 342 343 342 342 342 342 342 342 342 343 342 343 343 343 343 343 343 343 344 343 342 340 340 340 339 338 337
347 347 347 347 346 346 349 350 346 343 344 346 346 344 344 344 343 343 345 346 347 347 346 347 350 350 348 348 346 346 346 344 345 346 345 346 346 345 345 346 346 348 348 349 349 349 350 350 350 351 349 347 346 346 347 348 347 345 343 342 342 342 342 342 342 342 342 343 343 343 344 344 343 343 343 342 343 343 344 343 342 341 340 340 338
347 347 347 346 345 345 347 349 346 343 344 346 346 346 344 344 343 342 344 346 348 348 347 347 349 349 350 350 347 346 347 346 344 346 345 345 346 346 346 347 346 347 348 348 348 349 350 350 350 351 351 349 348 348 348 348 346 346 345 344 343 342 341 341 341 342 342 343 343 343 343 344 344 344 343 342 341 343 344 345 344 342 341 341 340
347 348 347 346 345 344 345 346 347 345 345 345 346 345 345 346 344 344 346 347 348 350 348 347 350 349 348 348 348 347 348 347 346 346 346 345 346 346 346 347 347 347 348 348 348 348 349 350 350 350 350 350 350 350 351 351 348 346 346 345 344 342 342 341 341 342 342 342 343 343 343 344 344 344 344 343 342 342 343 345 346 343 341 341 340
348 347 347 346 345 344 343 345 346 345 344 345 346 346 347 347 343 342 345 345 346 350 350 349 349 349 348 348 347 347 348 348 348 348 347 348 347 346 347 347 347 347 347 347 348 348 348 349 349 349 349 350 351 351 352 353 351 348 345 343 342 342 342 341 341 341 342 342 343 342 343 344 344 344 344 344 343 342 343 344 345 344 343 342 341
348 347 347 347 345 344 344 343 344 344 344 345 347 347 347 346 341 339 342 343 345 349 351 352 350 349 350 350 349 349 348 348 348 348 348 348 348 347 347 347 347 348 348 347 347 348 348 349 348 348 348 349 351 351 352 353 353 350 347 343 341 341 340 339 339 340 341 342 341 342 342 343 344 345 345 344 343 342 341 342 343 343 343 342 342
348 347 347 348 346 345 344 344 344 344 344 346 347 347 345 343 341 341 341 343 346 347 349 353 352 350 350 351 350 349 348 348 348 348 348 348 348 347 347 347 347 348 348 347 347 347 347 348 348 349 348 349 350 351 351 352 352 351 350 345 342 341 338 337 337 337 338 339 340 341 341 341 343 345 345 344 342 342 341 341 342 342 343 343 342
348 348 347 348 348 346 345 345 345 345 345 346 347 347 345 343 343 343 342 343 346 347 349 351 351 351 351 350 350 349 348 348 348 348 348 348 349 348 347 347 347 347 348 347 346 347 347 347 347 348 348 349 350 350 351 351 351 350 349 346 343 341 338 336 336 335 336 336 337 338 339 339 340 342 343 342 341 341 341 340 340 341 342 343 344
348 348 348 349 349 348 348 347 346 346 345 346 348 348 347 346 345 343 343 344 345 347 348 350 351 350 350 349 349 348 347 348 347 348 348 348 349 349 347 347 347 346 348 348 347 346 347 347 348 347 348 349 349 350 351 351 351 348 346 345 344 341 339 337 337 335 335 335 335 335 337 338 338 339 339 339 338 338 338 338 338 338 340 341 342
347 348 349 349 350 350 350 349 346 346 346 346 348 347 346 347 346 344 344 344 345 345 347 349 351 350 350 349 348 348 348 347 347 348 348 348 349 348 348 348 348 347 348 349 348 348 348 348 348 348 348 348 348 350 350 350 351 348 346 347 344 342 340 338 337 337 336 335 335 334 334 336 336 336 336 335 336 335 336 337 337 337 337 338 338
349 349 349 349 350 350 351 349 346 345 346 346 347 346 344 346 346 345 346 346 345 346 347 349 351 350 350 350 349 348 348 348 348 348 348 348 347 348 349 349 348 347 348 349 348 348 348 348 348 348 348 348 348 349 349 350 351 348 345 346 345 340 339 339 339 338 337 336 335 333 332 333 334 333 334 334 336 337 337 337 337 337 337 337 337
349 349 349 349 350 350 350 350 347 345 344 345 346 345 344 345 346 345 347 348 346 346 348 349 350 350 350 350 350 349 348 348 348 348 348 347 347 348 349 349 349 349 348 349 348 348 348 348 348 348 348 348 348 349 349 349 351 349 342 344 347 343 339 340 341 340 338 337 336 334 331 331 333 334 336 336 337 337 337 336 336 336 336 336 336
349 349 349 349 350 351 350 349 345 342 343 343 344 345 344 345 346 345 346 347 347 346 347 349 349 349 350 349 349 348 347 348 348 348 348 348 348 349 348 349 349 350 350 350 349 348 347 348 348 348 348 348 349 349 347 347 349 347 340 342 349 347 341 339 340 340 339 336 337 336 333 333 334 336 337 337 337 337 336 336 337 337 337 338 338
348 348 349 350 351 350 350 349 345 340 340 341 342 344 344 344 346 345 345 346 347 347 348 349 349 348 348 348 348 348 347 348 347 348 348 348 349 349 349 349 349 350 351 351 351 349 348 348 347 349 349 348 350 350 348 348 348 345 343 345 350 351 345 339 339 340 338 336 336 337 336 335 336 337 337 337 336 337 337 338 339 340 341 342 342
348 348 350 350 350 349 349 349 346 341 340 340 340 342 342 343 345 344 343 344 346 346 347 348 348 347 348 347 347 347 347 347 348 347 347 348 349 349 349 349 349 350 351 352 353 350 348 348 347 349 349 349 350 350 349 350 347 344 347 349 350 352 348 341 339 338 337 337 336 336 336 337 337 337 337 337 337 338 339 341 343 345 346 347 347
348 348 349 349 349 349 347 347 347 343 342 342 342 342 340 342 345 345 343 342 342 342 344 347 348 348 348 348 347 347 347 347 348 348 347 347 349 349 350 349 349 350 351 352 353 351 349 347 346 347 349 348 349 350 350 350 348 344 346 349 350 350 345 340 338 337 337 337 337 338 338 338 339 340 340 339 339 339 340 342 345 347 348 348 349
347 348 348 347 349 351 349 347 349 348 346 346 347 345 341 342 346 347 347 344 341 341 343 346 348 347 348 348 348 347 347 347 348 349 348 348 349 349 350 349 350 351 351 351 351 351 349 347 346 346 348 348 348 349 349 350 349 345 345 349 350 346 343 342 340 337 337 338 339 341 341 341 342 341 342 342 342 342 341 342 345 348 348 349 349
347 348 348 348 347 349 351 350 351 350 348 348 349 349 345 343 345 348 349 348 344 341 343 346 348 348 347 347 347 348 348 347 348 349 348 348 348 349 349 349 350 351 351 351 351 350 349 348 346 345 347 348 348 349 350 350 350 348 345 348 350 347 346 349 346 340 338 338 340 343 342 341 340 339 339 339 341 342 342 343 345 345 346 346 346
347 347 349 350 348 348 351 352 352 351 349 348 349 351 349 346 345 347 349 349 346 344 345 345 346 347 348 347 346 346 346 346 346 347 347 347 348 348 348 348 349 350 351 351 351 350 350 349 347 346 347 348 348 348 350 350 351 352 349 349 351 351 350 352 352 349 343 339 341 342 340 338 338 338 337 337 338 340 341 342 342 342 342 342 343
346 347 347 350 350 349 349 350 351 351 350 348 349 351 350 348 348 349 350 351 349 347 347 346 346 347 347 348 345 345 345 344 345 347 347 348 348 348 348 348 349 350 350 351 351 350 350 349 348 347 347 348 347 348 350 349 350 352 352 350 351 352 352 352 353 354 350 345 342 340 337 338 338 339 339 339 339 340 340 340 340 341 341 341 341
346 346 347 348 348 348 348 348 348 349 350 350 349 349 349 348 347 348 350 352 351 351 350 349 349 349 348 348 347 346 344 344 345 346 347 349 349 349 349 349 349 349 350 351 352 351 351 349 348 348 348 348 348 347 348 350 351 351 352 350 350 351 352 351 351 352 352 349 343 338 337 339 340 341 341 341 340 340 339 339 340 340 340 340 341
347 347 348 348 348 348 349 348 348 348 349 350 351 349 350 350 348 348 349 351 351 352 352 351 350 350 349 348 348 347 346 345 345 346 347 349 349 349 349 349 349 350 350 350 351 352 352 350 349 349 349 349 349 348 350 352 350 350 349 346 347 350 351 351 350 349 351 349 343 339 339 340 341 342 343 342 341 340 339 338 339 339 340 340 340
348 349 349 349 348 348 348 348 351 351 349 349 350 349 350 351 351 350 350 350 350 351 351 351 351 351 350 349 349 348 347 346 345 346 347 348 349 349 349 350 349 350 350 351 352 352 353 352 350 350 350 350 350 348 350 350 346 346 348 346 346 349 350 351 350 348 349 347 344 342 342 342 343 342 343 343 342 340 339 338 339 339 339 339 339
346 348 350 349 348 349 349 348 350 352 350 348 348 347 348 349 350 350 350 350 349 349 349 349 350 350 351 351 351 350 348 347 346 346 346 347 348 348 349 350 350 350 350 351 351 351 352 352 351 351 351 351 351 349 350 349 345 346 350 350 349 349 349 350 349 348 347 347 347 346 346 345 344 343 344 344 343 341 340 339 339 338 338 339 340
344 346 348 349 349 349 350 349 350 350 349 348 348 348 347 347 348 349 349 348 348 348 348 348 349 350 351 351 352 351 351 350 349 349 348 347 348 347 348 348 349 350 350 350 351 351 351 351 350 351 351 351 351 351 351 352 349 347 348 349 350 350 350 350 348 347 347 346 348 348 349 348 346 344 344 344 344 344 343 342 341 340 341 342 342
342 344 346 347 349 349 349 349 349 349 349 348 347 348 348 348 348 347 348 347 348 349 348 349 350 350 351 352 352 352 352 352 350 350 349 348 348 348 348 349 349 350 351 351 351 350 351 352 351 350 351 351 352 352 352 351 350 346 344 346 348 348 349 349 349 348 349 349 349 349 348 350 349 348 347 346 346 345 345 344 344 343 343 343 343
341 343 345 346 349 349 348 348 349 349 347 346 345 345 347 347 347 347 347 347 348 349 349 349 350 351 351 352 352 352 352 351 351 351 349 347 346 347 348 349 351 351 352 352 351 350 350 351 351 350 350 350 352 353 352 352 351 348 344 345 349 349 347 347 350 352 351 350 348 347 348 351 351 351 349 348 349 349 347 346 346 346 345 343 343
343 344 345 347 349 348 347 348 349 348 347 345 344 344 345 345 346 346 347 347 347 348 348 348 348 349 349 350 351 351 350 350 350 349 348 345 345 345 345 347 349 350 351 351 351 351 351 351 351 350 349 348 350 351 352 352 352 351 347 344 348 352 350 347 350 354 351 347 345 345 348 350 348 346 346 346 349 351 350 350 350 350 348 345 343
345 345 345 347 348 347 347 347 348 348 346 345 345 345 345 345 346 346 347 348 348 347 347 347 347 347 347 348 349 350 350 350 349 349 349 347 345 345 345 345 346 347 348 348 349 350 350 351 351 350 350 348 348 350 351 350 351 353 351 346 346 350 350 347 350 353 349 345 346 345 346 349 348 347 345 345 349 351 351 351 350 349 348 344 341
345 345 346 346 347 347 347 347 347 347 347 346 345 345 346 346 346 347 348 348 348 347 347 347 348 348 347 346 347 347 348 349 348 348 349 348 348 346 345 345 345 346 346 347 347 348 349 350 351 350 349 348 348 349 350 350 351 349 349 349 350 350 350 347 348 352 350 348 350 349 347 349 352 352 349 347 349 351 351 351 351 348 345 342 339
346 345 345 346 346 346 346 346 346 347 347 347 346 345 346 346 346 347 347 346 347 347 347 347 348 348 346 345 345 345 346 347 347 347 348 348 349 348 347 346 345 344 345 345 345 346 346 348 349 349 348 348 347 346 347 350 351 346 346 351 354 352 350 347 346 348 350 350 350 350 350 349 350 352 353 350 350 352 352 352 350 346 343 341 340
348 347 346 346 345 346 346 346 346 346 346 346 346 345 345 345 345 346 345 345 346 346 346 346 347 347 346 346 345 346 346 347 347 347 348 349 350 350 350 350 347 345 344 344 345 345 346 346 346 347 346 346 345 345 344 348 350 348 347 350 352 349 348 349 348 346 347 348 347 348 351 350 348 349 352 352 351 352 352 352 351 348 343 340 339
347 348 348 347 346 346 346 346 346 346 345 345 345 345 345 344 345 346 345 346 346 347 347 347 347 346 346 346 346 346 347 347 347 347 346 346 347 348 349 350 348 345 344 345 346 346 346 345 345 346 346 345 345 345 344 347 348 348 346 346 348 349 348 349 349 347 346 348 348 349 350 350 349 349 350 351 352 352 352 351 351 349 345 341 339
347 347 347 348 347 347 347 346 347 346 346 345 345 344 344 344 345 346 346 346 347 346 346 346 346 346 347 347 347 347 347 347 346 345 344 344 344 344 344 347 347 345 345 345 346 346 347 346 346 346 346 345 345 345 345 346 344 345 348 347 348 350 350 348 347 346 347 349 349 351 351 350 349 349 349 351 352 352 351 351 350 350 347 342 340
348 348 348 349 348 349 348 347 347 347 346 346 346 344 344 345 345 346 346 347 346 346 346 346 347 348 347 347 346 345 345 344 343 343 343 343 344 344 344 344 345 345 344 345 345 346 347 348 348 347 347 346 346 346 346 346 343 342 346 349 349 352 352 350 347 347 349 349 348 351 354 352 349 350 351 352 352 351 350 350 350 349 346 343 342
348 347 348 349 349 349 348 347 347 347 347 347 346 345 345 345 344 345 346 346 347 347 347 347 347 347 347 346 345 344 343 341 340 341 342 342 343 343 344 345 345 345 344 345 346 347 348 349 349 349 348 347 348 348 347 347 346 343 343 345 348 352 353 351 350 351 351 350 350 351 353 352 350 350 351 351 351 351 349 349 351 350 348 346 345
Wind_Speed
24 23 24 25 25 25 26 25 23 23 23 23 23 23 22 20 21 21 20 18 17 14 11 10 10 8 8 7 7 7 7 6 6 5 5 4 3 3 3 1 1 1 2 4 4 4 5 5 5 7 6 6 6 7 6 5 5 5 5 6 6 7 8 9 10 10 9 8 7 6 5 5 5 5 6 5 6 6 6 7 8 8 7 7 7
23 23 24 25 25 26 26 25 24 24 23 22 22 23 22 20 22 21 21 21 20 16 11 10 10 8 8 8 7 7 7 7 6 6 6 5 4 4 4 2 2 2 2 3 4 4 5 5 5 6 6 7 7 7 6 5 5 5 5 6 6 6 7 8 9 10 10 9 8 6 5 4 4 5 5 5 6 6 6 6 7 8 8 7 7
21 23 24 24 25 25 25 26 25 23 23 23 23 24 24 23 24 22 22 22 20 16 12 10 10 9 9 9 8 8 7 7 7 7 6 5 5 4 4 4 3 3 3 4 4 4 5 5 5 5 6 7 7 7 7 6 6 5 5 6 6 6 6 7 8 9 10 10 9 7 6 4 4 4 4 5 5 6 6 6 6 7 7 7 7
20 21 22 23 23 24 24 25 25 24 25 24 24 25 25 25 25 22 22 22 19 15 11 10 10 8 9 9 8 8 7 8 8 7 6 6 5 4 4 5 5 4 4 4 4 5 5 5 5 5 5 6 6 6 6 6 6 6 6 6 6 6 6 6 7 8 9 9 9 8 7 5 4 4 4 4 4 4 5 6 6 6 6 7 6
20 20 21 22 23 22 23 24 23 23 23 23 22 23 23 24 24 21 20 19 18 15 10 10 10 9 9 9 8 8 8 8 8 7 6 6 5 4 4 5 6 6 6 5 5 5 5 5 5 5 5 5 5 6 5 5 5 6 6 6 6 6 6 6 6 7 7 8 8 8 7 6 5 4 4 4 4 4 4 5 5 6 6 6 6
18 19 20 23 22 20 20 21 20 19 20 19 18 19 20 21 21 19 18 17 16 13 10 9 9 9 9 9 8 8 9 9 8 7 6 5 5 5 5 5 5 6 7 7 6 6 6 5 5 5 5 4 5 5 5 5 5 5 5 6 6 6 6 6 6 6 5 6 7 7 6 6 5 5 4 3 4 4 5 5 5 5 5 6 6
17 18 19 21 20 19 18 18 17 17 17 16 15 16 17 17 18 17 16 15 13 11 10 10 9 9 9 9 9 9 9 8 7 7 6 5 5 5 5 5 5 6 6 7 7 7 6 6 6 5 5 5 4 4 4 5 5 4 4 5 5 5 5 5 5 5 4 4 5 5 5 5 5 4 4 3 3 3 4 5 5 6 6 6 6
16 17 17 19 19 17 17 16 16 15 14 14 13 14 14 15 16 15 14 13 12 11 11 10 10 9 9 9 9 9 9 8 7 6 5 5 5 5 6 5 6 7 7 7 7 7 7 6 6 6 6 5 5 4 4 4 5 4 4 4 4 4 4 4 3 3 3 3 3 4 4 4 3 3 3 3 3 2 2 4 6 7 7 7 7
15 15 16 19 19 17 16 15 16 15 13 12 12 12 13 13 14 15 14 12 12 12 11 10 10 10 9 9 9 9 8 7 7 6 5 6 6 6 6 6 7 6 6 7 7 7 7 7 7 6 6 6 6 5 5 5 5 5 4 4 3 3 4 4 4 3 1 1 1 2 1 2 2 2 2 2 2 2 2 2 3 5 7 7 8
15 14 15 18 18 18 17 16 16 16 14 14 13 13 13 14 15 14 13 12 12 12 11 10 10 10 10 10 9 9 8 7 7 6 6 6 6 6 6 6 6 5 6 7 8 8 8 8 7 7 7 7 6 6 6 6 5 5 5 4 4 4 3 4 4 4 4 3 2 1 1 0 1 1 1 2 1 1 1 1 1 2 4 6 7
13 13 14 16 16 17 17 16 16 16 15 15 16 16 16 15 15 14 13 14 13 12 11 11 11 10 10 10 9 9 8 7 6 6 5 6 6 6 6 7 7 6 6 7 7 8 9 8 8 8 7 7 7 7 6 6 6 6 6 6 5 5 4 4 4 4 4 5 4 3 3 2 1 0 1 1 1 1 1 0 1 1 1 2 4
12 12 13 15 16 16 16 16 16 15 15 16 17 17 15 15 14 14 15 15 14 13 12 12 11 10 10 9 9 9 8 7 6 6 5 6 6 6 6 7 7 7 7 6 6 7 8 9 8 7 7 7 7 7 7 6 6 6 7 7 7 6 6 5 5 5 5 5 6 5 5 4 3 2 1 2 2 2 1 1 1 1 1 1 2
12 12 13 14 16 15 14 16 15 15 15 16 15 14 14 14 13 14 15 15 13 13 12 12 11 11 11 10 9 8 8 8 7 6 6 6 6 6 6 7 7 8 7 7 6 6 8 9 8 8 8 8 7 7 7 7 7 7 7 8 8 8 7 7 7 6 6 6 6 6 6 5 5 4 4 3 3 3 2 2 2 2 1 1 1
10 10 12 14 16 14 14 15 15 15 15 14 13 13 14 15 14 14 15 14 13 12 13 13 12 11 11 10 10 9 9 8 8 7 6 6 6 6 6 7 7 7 7 7 7 6 7 8 8 8 8 7 7 7 8 8 8 8 8 8 9 9 8 8 8 7 7 6 6 6 6 6 6 6 6 5 4 4 3 3 3 3 2 2 1
10 9 11 14 16 15 14 14 15 15 15 14 13 14 15 15 15 16 15 14 13 13 15 15 12 11 11 10 10 11 10 9 8 7 7 6 6 6 6 6 7 7 7 7 7 7 8 9 8 9 8 7 8 8 9 8 8 9 9 9 9 9 9 9 8 8 7 7 7 6 6 7 7 6 6 6 5 4 4 4 3 3 3 2 2
9 9 11 14 15 15 13 13 15 16 15 14 13 14 15 15 16 17 16 15 14 13 15 16 12 10 10 9 9 9 10 10 8 7 7 7 6 6 6 6 7 7 7 7 7 8 8 9 9 9 10 9 8 9 9 8 7 8 9 9 9 9 9 9 8 8 8 8 7 7 7 7 7 7 7 6 6 6 5 4 4 4 4 3 3
10 9 11 13 15 16 15 14 15 15 15 13 13 14 15 16 17 18 17 15 14 14 15 15 12 10 10 8 7 7 7 8 8 7 6 7 6 7 7 6 7 7 7 7 7 8 8 8 9 10 10 9 9 9 8 8 7 7 8 8 9 9 9 10 9 9 9 8 8 8 7 7 7 8 7 7 7 7 6 6 5 5 5 4 4
11 10 11 13 14 16 16 16 15 15 14 13 13 15 15 16 17 18 17 16 14 14 15 14 12 11 10 8 6 5 4 5 6 6 6 6 5 6 7 7 7 7 7 7 7 8 8 8 9 10 10 9 9 9 8 8 8 8 8 8 9 9 9 10 10 10 10 9 9 8 8 8 8 8 8 8 7 7 8 7 6 6 5 5 5
10 11 12 14 15 16 17 17 15 15 15 14 14 15 15 15 17 17 16 16 16 14 14 14 12 11 10 8 6 5 4 4 4 4 5 5 5 5 5 6 6 7 7 7 8 8 8 8 8 9 9 9 10 9 9 9 8 8 8 8 8 9 9 9 10 10 10 10 10 9 9 9 9 9 9 9 8 8 8 8 8 7 6 6 6
9 11 13 14 15 17 18 18 17 16 16 15 14 15 15 15 17 18 17 18 18 15 12 12 12 11 10 9 8 6 6 5 4 3 3 4 4 4 4 5 6 6 7 7 8 8 8 8 8 8 9 9 10 10 9 9 9 9 8 8 8 8 9 9 9 10 11 11 10 10 10 10 10 9 9 9 9 8 8 8 8 8 7 6 7
8 10 13 14 16 18 19 19 18 16 17 16 15 15 16 16 18 18 19 19 18 16 14 11 10 10 10 9 8 7 6 6 6 5 4 4 4 4 3 4 5 6 6 7 8 8 8 8 8 8 8 8 9 10 9 9 10 9 8 8 8 8 9 9 9 10 10 11 11 11 11 11 10 10 10 10 9 9 8 8 8 8 8 7 7
8 10 13 14 17 19 19 19 18 17 17 16 15 16 16 17 17 18 19 19 18 17 16 11 9 9 9 8 8 7 6 6 6 6 6 5 5 5 5 5 5 5 6 6 7 8 8 8 8 8 8 8 9 9 9 10 10 9 10 9 8 9 9 9 9 9 10 10 10 10 10 10 10 10 10 10 10 9 8 8 8 8 8 8 7
9 10 13 14 17 19 19 18 18 17 18 17 16 16 16 16 17 18 19 19 18 17 16 12 11 10 9 8 8 8 7 7 7 6 6 6 6 6 6 5 5 5 5 5 6 7 8 9 9 8 8 9 9 9 9 10 10 10 11 11 9 9 9 9 9 9 9 9 9 9 9 9 9 10 10 10 10 9 8 8 8 8 9 9 9
9 10 12 13 16 18 18 18 18 18 18 18 16 16 16 15 16 18 19 19 19 18 17 14 12 12 11 10 9 8 8 8 7 7 7 7 6 6 6 5 5 5 4 4 5 7 8 9 9 9 9 9 8 9 10 10 10 11 11 10 10 10 9 9 9 9 9 9 9 9 8 8 8 8 9 9 9 8 8 8 8 9 9 9 9
8 9 10 11 14 17 18 18 19 18 18 18 17 18 18 16 16 18 18 20 20 19 18 15 13 12 12 11 10 9 9 8 8 8 8 7 7 7 7 6 6 6 4 4 5 6 7 8 9 8 9 9 9 9 9 8 9 11 10 10 10 9 10 10 9 9 9 9 9 8 8 8 8 9 9 9 9 8 8 8 8 8 8 8 8
7 8 10 12 14 16 18 19 19 19 19 19 19 19 19 17 17 17 17 18 19 19 18 16 14 13 12 11 10 9 9 9 9 9 9 9 8 8 7 7 7 7 6 5 5 6 7 7 8 8 8 9 9 10 10 8 9 11 9 9 10 9 10 10 9 9 9 9 9 8 8 9 9 9 9 9 8 8 8 7 7 7 7 7 7
8 8 9 12 13 15 18 19 19 19 19 20 19 19 20 18 17 17 17 17 19 19 18 16 14 14 13 12 11 10 10 9 9 10 10 10 9 8 7 7 7 7 6 6 6 7 7 6 7 7 8 9 9 11 11 9 10 12 9 8 10 9 9 9 9 9 9 10 10 9 9 9 9 9 9 8 8 7 7 7 6 6 6 6 6
9 8 8 10 12 14 17 19 20 19 18 19 19 19 20 19 17 17 17 17 18 19 18 16 15 15 13 12 12 12 11 10 10 10 10 10 9 8 8 7 7 7 7 7 6 6 6 7 7 7 7 9 9 10 11 9 10 12 10 8 10 10 9 8 9 9 9 10 10 10 9 9 9 9 9 8 8 8 7 7 6 6 6 5 5
11 9 7 9 11 13 15 18 20 19 18 19 19 18 19 20 19 18 18 18 18 18 17 16 15 15 14 13 13 12 12 12 12 11 11 11 10 10 9 8 8 8 8 7 7 6 5 6 7 7 8 8 8 9 10 9 11 11 9 8 10 10 10 8 8 9 9 10 10 10 10 10 9 9 9 8 8 8 8 7 7 6 6 6 6
13 11 9 9 10 12 14 16 18 18 18 19 19 19 20 20 20 20 20 19 19 19 18 17 16 15 14 14 13 13 12 12 12 12 12 12 12 11 11 10 9 9 9 9 9 8 6 6 6 6 7 8 8 10 9 10 11 10 9 9 9 11 12 9 9 9 9 10 10 9 10 9 9 9 9 9 9 9 9 8 8 7 7 7 7
14 13 12 10 9 10 13 16 17 17 18 18 18 20 20 20 20 21 20 21 20 20 20 19 17 16 15 15 14 13 13 13 13 12 12 12 12 12 12 11 11 10 10 10 10 10 8 8 7 6 7 8 9 10 9 11 12 11 10 10 11 12 12 10 10 10 9 10 9 9 9 9 9 9 9 10 10 10 10 10 9 8 8 9 9
13 13 13 12 11 11 12 13 15 16 17 17 17 19 20 20 20 19 19 21 22 21 21 19 18 17 17 16 15 15 14 14 14 13 12 13 13 13 13 12 12 12 12 12 13 13 12 10 9 7 7 8 10 11 10 11 13 13 11 11 13 14 12 10 11 11 11 11 10 9 9 10 10 10 10 10 11 11 11 11 10 10 10 10 10
14 14 13 13 13 13 12 12 13 15 16 17 17 18 19 20 21 19 19 20 22 22 22 21 19 18 18 18 17 16 15 15 15 14 14 14 14 14 14 14 14 13 13 13 14 15 14 12 12 10 9 9 10 12 12 12 13 13 12 12 14 14 12 11 12 12 13 13 12 11 11 11 10 10 10 9 9 10 11 11 11 11 11 11 11
16 16 14 12 12 12 12 13 13 14 16 18 17 17 18 19 20 19 18 20 21 21 22 22 22 20 19 20 19 18 16 16 16 16 15 15 15 15 15 15 15 15 14 14 14 14 14 14 13 12 11 11 11 12 13 14 14 13 13 13 14 14 13 13 13 13 13 14 14 13 12 12 11 9 9 9 9 10 10 10 11 10 11 11 12
17 17 16 14 14 13 13 14 15 15 16 17 17 17 18 19 19 18 17 18 20 20 21 22 22 22 21 21 21 19 18 18 18 17 17 16 16 16 16 16 16 15 15 15 15 15 15 14 13 13 12 12 13 13 13 14 14 14 14 14 14 14 14 14 14 14 14 14 14 14 13 12 11 9 9 10 10 11 11 11 12 12 12 12 13
18 18 18 17 16 15 14 15 16 17 17 17 17 18 19 19 20 19 18 17 18 19 20 20 21 21 22 21 21 20 19 19 19 19 18 18 17 17 17 17 16 16 16 15 15 16 16 15 14 14 14 13 14 14 13 13 14 15 16 15 14 15 16 15 14 15 16 16 14 14 13 12 11 10 10 11 12 12 13 13 14 14 14 14 15
19 18 18 18 18 18 16 15 15 16 17 17 17 18 18 18 19 20 19 19 18 19 19 19 20 21 21 22 21 20 20 20 21 20 20 19 18 18 18 18 17 17 17 16 16 15 16 17 16 15 15 14 14 13 12 14 16 16 17 17 15 15 16 16 15 15 17 18 16 15 14 13 13 12 12 12 13 13 15 15 16 16 16 16 17
18 18 18 19 19 19 18 16 15 15 17 18 19 19 19 18 18 19 19 19 20 20 20 20 21 21 21 21 21 21 22 22 22 21 21 20 20 20 19 19 18 18 18 18 18 17 17 18 18 17 16 16 16 16 16 18 19 18 17 19 19 18 17 16 16 15 17 18 18 17 16 16 16 15 15 14 14 14 15 15 16 16 16 17 18
19 19 19 19 19 19 18 17 16 17 18 19 19 20 20 20 20 20 20 20 21 22 22 23 23 22 22 21 22 22 23 23 23 22 22 22 21 21 21 21 20 20 20 19 19 20 19 20 20 20 19 18 18 18 17 19 20 19 18 19 20 20 19 19 18 17 17 17 16 17 18 18 18 17 15 15 15 15 15 15 15 16 16 17 18
20 20 19 18 19 19 19 18 18 19 20 20 20 21 21 22 21 21 21 22 23 23 23 23 23 23 23 22 22 22 22 24 24 23 23 22 22 22 22 22 21 21 22 21 21 21 21 21 21 20 20 19 19 19 17 18 21 23 22 20 20 20 20 21 21 19 18 17 16 16 17 18 19 18 16 16 16 16 15 16 16 16 17 18 19
21 21 20 19 19 19 20 20 20 21 21 22 23 22 22 22 22 22 22 22 22 22 22 22 22 22 22 22 22 23 23 25 26 26 26 25 24 23 22 22 22 22 23 23 23 23 22 23 23 22 21 21 20 21 21 22 24 26 25 23 23 22 20 20 22 21 20 19 19 18 16 15 17 18 17 18 17 17 17 17 17 18 19 19 20
20 20 20 19 19 19 20 20 20 21 23 25 25 24 23 22 22 22 22 22 21 21 22 22 21 21 21 21 22 24 25 26 27 29 30 29 28 27 25 23 23 23 24 25 25 25 24 24 25 24 24 25 22 22 23 24 24 26 26 24 23 24 24 22 20 19 21 21 22 22 19 16 17 19 20 20 18 19 20 19 19 20 21 21 22
19 19 19 19 19 20 20 20 20 21 24 25 25 24 23 23 23 22 22 22 22 23 23 23 23 23 23 23 23 24 26 27 28 29 31 32 32 32 31 30 28 27 27 27 27 27 26 26 27 26 27 28 27 25 24 23 22 24 27 27 23 22 26 26 21 20 23 24 24 23 23 22 24 24 23 21 19 19 20 19 18 20 23 24 23
17 17 18 18 18 19 20 20 21 23 24 24 23 22 22 23 23 22 22 22 23 23 23 24 25 24 24 25 25 24 25 26 27 27 29 30 31 32 33 34 34 34 33 32 31 30 28 27 27 28 29 29 29 27 26 25 23 21 24 28 27 26 27 27 24 23 26 25 22 22 23 23 23 24 23 22 20 20 20 19 20 23 24 24 23
15 16 16 16 17 19 19 20 21 22 23 23 22 21 21 21 22 22 22 21 21 22 22 23 23 23 24 25 25 25 25 25 27 27 27 29 30 30 32 33 35 38 39 39 38 36 34 32 31 32 33 32 31 30 28 27 28 28 27 25 26 27 28 28 27 25 24 23 21 21 22 20 19 20 22 21 20 20 20 20 22 23 23 22 22
15 15 16 16 17 18 19 20 20 21 21 21 20 19 19 20 21 22 22 21 21 22 22 22 22 23 24 25 25 25 25 25 27 27 27 27 28 30 31 33 34 36 38 40 42 43 42 40 39 38 38 36 35 35 32 29 31 34 31 25 24 27 29 28 28 27 24 23 22 21 21 21 19 20 20 19 19 19 20 21 23 24 22 21 23
16 16 17 18 18 18 18 19 19 20 20 20 19 18 18 19 19 21 22 21 21 22 23 23 23 23 24 24 24 25 25 25 26 26 26 25 26 28 30 32 34 36 37 38 40 43 45 46 46 45 43 41 40 39 38 34 33 34 33 30 28 30 29 27 28 30 29 27 26 24 23 22 20 20 20 18 18 18 18 20 23 24 24 23 24
16 17 18 19 19 18 18 19 19 19 19 20 19 18 19 19 19 21 22 22 22 22 23 23 23 23 23 23 23 24 24 24 25 26 28 28 29 31 31 32 34 37 37 37 38 40 42 45 48 48 48 46 43 42 40 37 36 35 35 34 31 30 30 30 30 31 30 28 26 26 26 24 19 20 20 18 17 18 17 17 19 23 25 25 24
18 17 18 19 19 19 19 19 19 19 20 20 20 19 19 19 20 22 23 22 23 23 23 23 23 23 23 23 23 24 24 24 25 26 28 29 29 31 31 31 33 36 38 38 39 40 41 42 45 46 47 48 46 45 43 41 41 37 34 33 31 29 30 32 33 32 31 28 26 25 28 26 21 20 20 19 17 18 17 16 17 21 25 25 22
18 17 17 18 18 18 19 19 20 20 20 21 21 20 19 20 21 22 22 22 22 22 23 22 22 22 22 23 25 26 27 27 27 27 28 28 28 28 28 30 32 35 37 38 39 40 41 41 43 44 45 46 46 46 46 45 46 42 36 34 30 28 29 33 33 31 29 27 25 24 26 26 21 18 19 18 18 18 17 16 16 20 24 24 22
18 17 17 17 18 18 20 20 20 21 21 21 22 21 20 21 22 23 22 22 21 22 21 21 21 21 21 22 25 28 30 30 29 28 28 29 29 29 28 30 34 36 37 36 37 38 39 40 42 43 44 44 44 45 46 46 47 46 43 39 34 29 29 30 29 28 27 26 24 25 27 25 20 18 18 17 17 17 15 14 15 16 19 20 21
Wind_Direction
235 234 236 237 238 238 240 243 241 238 237 235 234 237 238 239 243 242 246 251 250 244 241 249 249 247 244 244 250 242 232 219 204 201 192 186 196 173 148 141 150 147 135 128 123 124 126 125 132 135 131 119 111 111 114 113 100 85 78 85 86 79 78 78 75 77 85 94 103 107 110 117 123 127 129 126 121 116 114 121 129 133 133 135 139
239 239 239 240 241 240 242 244 243 238 234 235 236 236 236 242 244 242 249 255 251 241 234 241 241 238 242 240 238 234 225 214 200 201 198 183 195 199 174 173 199 185 170 150 140 136 132 131 132 136 139 132 124 120 121 118 108 93 82 88 96 92 86 85 82 80 84 90 98 104 108 114 120 130 138 138 135 131 128 127 127 127 127 131 138
240 241 242 243 242 241 241 244 243 240 236 237 239 238 237 243 245 243 251 254 247 235 222 228 235 232 237 236 232 228 216 204 199 200 197 187 193 207 198 192 206 208 195 178 163 153 144 143 142 140 142 140 133 127 125 123 118 111 96 95 103 104 98 93 89 86 86 88 93 102 111 118 126 136 143 145 145 143 140 137 135 129 128 129 133
241 241 244 244 242 241 239 240 241 240 241 242 242 241 240 244 246 243 246 248 242 234 219 221 230 228 229 229 226 221 209 200 200 199 194 195 193 202 220 210 206 214 213 200 186 174 161 155 155 152 150 151 149 140 134 130 124 118 109 107 112 110 106 98 92 89 87 88 89 93 101 110 123 137 147 152 158 157 150 149 148 145 143 141 141
245 243 245 245 241 237 235 236 238 239 240 241 239 238 239 241 242 239 236 235 232 229 220 220 227 224 222 222 219 212 204 201 202 200 196 198 197 200 223 227 217 212 214 215 205 194 182 174 169 164 160 160 163 159 150 141 133 126 120 121 122 119 112 105 99 93 89 89 87 86 87 92 101 117 136 150 162 168 168 166 161 162 163 162 161
247 246 246 245 238 230 229 231 233 235 234 235 231 230 233 232 232 231 226 224 223 222 216 217 219 217 216 215 214 208 201 201 201 202 200 198 200 202 217 235 240 227 214 213 212 208 200 192 186 182 176 166 163 166 167 163 155 145 135 134 133 130 125 117 111 106 99 92 88 85 82 80 83 91 107 133 159 176 182 182 178 179 180 180 179
245 247 245 241 233 225 226 226 227 230 225 225 223 221 222 219 221 221 217 215 213 212 209 209 208 208 210 208 207 204 200 201 200 202 204 205 209 212 217 226 239 243 229 215 210 208 209 207 201 199 199 190 178 174 174 175 175 170 158 150 146 145 141 133 124 118 116 109 101 93 87 83 77 79 88 102 129 166 187 191 192 192 194 196 193
243 246 237 228 227 226 225 222 224 224 215 212 214 212 211 212 214 209 205 204 201 202 201 201 201 201 203 203 202 199 199 202 201 202 208 212 216 218 224 226 227 236 238 227 214 206 205 210 208 204 208 209 206 198 190 189 188 187 183 178 172 165 157 159 160 133 121 127 124 108 94 92 88 81 84 89 97 115 169 195 200 199 200 206 207
250 248 234 226 228 223 219 218 216 211 202 203 208 207 208 208 206 199 194 193 193 195 194 194 195 195 197 197 196 196 199 203 203 206 215 220 225 225 227 229 231 239 236 226 222 215 207 207 211 208 206 209 213 214 214 212 208 203 199 196 200 195 178 180 195 203 203 206 135 132 109 92 104 102 100 96 93 95 113 171 200 205 204 208 211
256 251 239 230 224 215 211 207 200 196 190 192 200 204 206 206 205 199 190 187 189 189 187 189 189 190 192 189 189 194 198 203 207 213 223 228 228 224 220 219 225 230 219 213 218 223 218 209 210 211 208 207 209 216 220 223 225 221 215 212 215 215 204 199 202 212 229 251 274 235 216 233 126 125 135 128 117 115 114 122 158 194 206 211 212
254 245 234 225 215 209 203 191 188 190 187 189 196 199 201 203 202 196 189 187 186 184 183 184 185 186 186 185 187 193 197 202 208 216 225 228 225 218 214 212 211 211 214 210 211 222 226 218 215 217 213 208 209 215 219 222 228 230 229 227 226 226 222 217 211 210 221 233 248 246 234 237 223 201 229 203 198 180 148 148 135 161 190 207 217
245 233 227 221 213 208 196 183 185 190 191 195 198 196 194 196 194 190 189 189 185 182 181 180 183 185 182 183 188 193 198 201 204 212 218 220 220 214 209 210 207 208 215 212 207 216 224 223 223 223 219 215 213 219 224 222 225 229 233 233 230 229 229 228 225 220 220 225 235 237 229 231 236 235 241 249 247 241 238 250 275 275 225 198 212
238 229 227 217 212 207 190 183 189 191 193 198 197 191 188 188 187 186 187 187 186 184 181 180 183 185 182 184 188 194 199 199 202 208 210 212 212 210 208 210 210 210 213 215 212 209 215 218 216 217 219 218 216 224 231 227 224 224 226 231 230 227 228 231 232 231 231 230 230 231 227 227 232 233 238 249 250 247 244 239 240 250 258 255 222
240 231 224 211 207 204 190 187 192 191 191 193 192 187 186 185 183 184 184 185 184 183 184 181 181 183 181 185 188 190 197 201 204 204 204 209 210 211 210 210 213 215 215 219 219 209 212 217 212 217 221 219 222 228 232 231 228 225 223 226 228 227 228 229 234 236 237 235 228 227 227 227 229 236 243 244 242 242 241 242 240 239 246 253 255
244 234 221 209 204 200 192 191 192 190 188 188 191 188 186 186 184 182 183 184 182 183 187 181 178 182 179 185 190 187 191 201 209 206 203 208 210 214 217 216 219 220 219 223 225 216 215 217 216 224 230 228 229 233 236 235 228 226 227 229 231 231 230 230 233 235 236 236 229 224 225 227 230 235 242 241 240 243 241 241 242 243 246 244 263
243 228 216 205 200 193 188 192 192 189 187 187 189 189 188 189 187 183 180 181 181 184 187 179 174 180 181 187 192 190 191 193 204 207 202 209 215 219 221 219 220 221 224 227 229 226 223 222 220 228 238 236 233 237 242 242 234 232 235 236 235 233 232 232 231 231 231 232 230 228 226 230 232 233 239 243 243 243 244 245 245 248 252 249 252
241 219 207 202 200 193 186 191 194 190 188 188 187 189 191 190 189 185 179 180 182 181 184 183 184 182 177 183 189 197 194 181 190 199 201 216 222 219 220 222 221 222 227 229 229 229 228 227 224 229 239 242 238 237 238 239 243 246 246 243 239 234 232 231 230 229 229 231 233 232 231 233 235 235 239 243 243 241 243 249 253 252 255 258 252
232 213 202 200 203 199 191 190 193 191 190 189 187 190 193 191 191 186 179 179 180 179 182 186 194 191 180 179 181 188 186 172 186 189 187 211 223 219 219 222 224 224 228 232 230 229 230 231 229 230 238 241 239 237 234 236 243 248 250 246 241 237 234 232 231 230 230 232 234 234 234 235 236 238 239 242 242 240 242 248 255 256 255 258 255
224 211 204 201 202 205 199 192 191 192 193 190 188 190 191 191 192 186 182 183 180 178 184 184 189 195 193 196 194 193 197 192 203 190 179 199 213 219 223 222 226 227 230 234 232 230 231 231 231 231 235 237 237 234 233 239 246 248 245 241 238 236 234 232 231 232 233 233 234 235 236 236 236 235 238 244 244 241 242 243 247 253 254 256 256
223 212 206 201 201 207 204 195 190 190 193 192 188 188 189 191 193 186 184 190 184 178 183 186 188 192 195 202 206 212 220 216 222 226 213 222 223 221 220 215 226 234 234 237 233 230 230 230 230 228 230 232 234 233 231 235 247 252 243 233 231 229 227 226 227 229 232 232 233 234 235 235 233 231 235 243 245 244 244 243 245 250 254 256 258
232 216 209 204 201 206 205 198 192 190 191 192 189 189 191 192 193 189 188 192 190 184 183 184 188 191 193 201 207 213 225 225 228 233 235 248 259 264 244 222 235 244 238 237 234 229 228 227 227 225 226 228 230 234 231 232 243 252 248 236 226 225 224 221 223 225 228 230 230 231 233 233 230 228 231 239 245 246 246 247 248 249 252 255 257
241 222 210 206 202 203 203 199 195 192 192 191 190 191 194 194 192 192 193 193 194 194 191 189 191 193 194 200 206 213 225 231 234 233 232 237 248 264 262 249 251 251 240 237 230 225 225 224 225 226 225 225 228 233 234 236 240 243 248 245 233 230 228 222 223 224 226 229 229 230 231 230 229 229 230 236 243 245 245 248 250 249 248 249 251
242 227 210 206 203 200 197 198 197 195 193 192 192 192 195 196 194 194 196 197 197 198 199 200 202 203 201 204 211 218 227 234 235 234 237 241 244 256 262 259 259 255 242 233 225 222 224 223 224 227 226 227 231 233 235 239 243 240 243 248 242 235 233 227 225 225 225 229 230 231 231 229 229 230 231 238 242 243 243 245 248 248 246 245 247
232 218 206 201 202 197 193 198 198 196 195 193 192 193 194 196 198 199 200 201 201 202 204 206 209 213 213 215 221 225 231 237 237 236 238 244 254 260 266 274 277 263 241 230 228 222 222 223 226 228 228 229 229 231 235 240 246 247 245 247 245 237 235 233 229 229 226 227 230 230 229 228 228 228 230 236 239 239 239 239 240 242 241 241 244
229 211 200 196 200 196 193 198 199 197 196 194 193 195 194 195 200 201 203 205 206 207 208 208 210 216 218 222 227 232 238 240 241 242 241 245 252 257 266 278 277 268 253 244 239 224 222 224 226 228 228 229 228 230 236 236 243 249 244 242 244 235 234 236 233 232 230 227 229 228 225 223 221 222 223 226 229 231 232 234 236 238 239 242 246
230 215 201 195 197 196 195 198 200 199 198 197 198 199 198 197 200 201 203 208 209 210 212 212 212 216 219 224 231 235 240 243 244 244 243 245 250 255 265 273 271 265 255 245 239 228 228 225 223 225 225 225 225 229 235 228 234 249 244 235 241 237 232 236 234 233 232 228 226 223 221 219 216 215 217 220 222 225 229 232 234 237 241 246 250
237 222 203 194 193 194 197 199 201 203 202 202 202 203 202 202 204 203 203 208 212 213 214 214 215 218 221 227 234 239 243 246 247 245 244 246 249 256 263 268 273 272 260 248 237 229 231 224 220 221 221 225 223 230 240 230 227 246 246 230 238 243 237 235 233 231 229 227 224 221 218 215 213 212 213 217 220 221 224 227 231 235 239 244 250
256 239 210 195 191 193 198 201 205 207 206 206 206 207 207 205 207 208 205 208 213 215 215 214 217 220 223 230 236 241 244 245 247 247 247 246 248 253 257 260 268 272 268 260 246 237 232 225 228 223 222 229 225 232 246 237 226 243 248 227 228 242 243 234 233 233 228 226 222 218 217 214 213 214 214 217 220 222 225 226 229 232 236 243 251
263 249 218 199 193 193 197 202 208 211 210 210 209 211 213 209 210 212 210 210 213 215 215 215 217 220 224 230 236 241 243 242 245 247 247 247 247 248 252 255 258 263 266 265 261 256 238 229 237 226 220 227 221 226 239 231 227 238 242 227 221 234 244 237 233 232 224 222 218 213 214 213 213 215 216 218 220 222 225 225 228 232 238 247 253
260 251 232 214 201 194 193 198 207 211 212 214 213 215 219 216 215 218 215 214 216 216 216 215 218 220 223 227 232 237 240 240 242 245 246 247 245 246 249 251 251 253 257 263 268 262 246 245 251 234 228 230 217 219 224 222 229 230 224 225 223 230 242 240 230 227 220 215 213 209 209 210 213 216 218 223 225 226 228 228 232 238 245 253 257
257 252 243 231 213 200 196 196 203 209 211 213 214 218 221 220 219 221 220 219 219 219 219 218 219 222 225 228 231 234 236 237 239 243 245 245 244 244 245 246 247 246 249 257 264 261 249 244 246 243 242 231 216 220 218 215 229 229 212 217 225 230 238 237 226 221 215 209 205 207 211 213 218 223 227 230 232 233 234 235 239 247 255 259 263
249 249 244 234 220 207 203 200 202 207 209 210 212 218 221 220 218 220 222 224 224 222 222 221 222 225 228 229 232 234 234 235 237 240 242 242 242 242 243 244 245 244 245 249 256 261 258 244 233 240 247 232 219 223 218 213 228 234 218 214 226 232 234 235 230 221 211 209 209 215 220 222 226 230 234 236 238 238 238 239 246 255 261 264 265
237 236 235 231 224 212 204 204 205 207 209 207 208 215 220 220 218 218 220 225 227 226 225 224 222 226 230 232 232 233 233 234 235 239 242 242 242 243 243 243 243 243 243 243 248 257 262 254 241 240 250 244 230 224 220 216 224 234 227 218 226 230 225 228 234 229 216 214 219 224 223 224 228 231 235 236 237 238 238 242 249 256 261 264 267
231 230 227 227 227 219 207 207 207 208 213 211 207 212 219 221 221 219 219 224 229 227 226 227 225 224 228 232 233 232 233 235 236 238 241 241 241 242 242 242 242 242 240 240 244 249 255 258 250 244 248 249 240 231 225 221 221 226 225 220 225 227 221 220 229 234 230 223 223 224 221 222 225 227 233 236 236 238 239 243 250 256 261 264 267
229 229 227 223 225 225 219 216 211 210 216 215 210 210 215 219 219 217 218 223 227 227 226 229 229 227 227 230 233 231 231 234 236 238 240 240 240 241 241 241 242 242 241 238 240 243 248 253 252 247 246 245 241 236 231 226 224 223 221 219 222 225 222 221 222 230 240 237 226 221 220 221 224 228 235 239 242 243 245 249 253 258 262 266 269
231 229 229 224 224 226 225 223 221 219 219 218 217 216 218 221 222 218 218 220 225 228 228 230 232 232 231 231 232 231 229 231 233 235 237 238 238 239 240 241 241 242 242 239 239 242 245 248 249 249 246 239 234 234 233 228 223 224 226 222 223 228 226 225 223 226 238 244 232 225 226 226 228 236 243 248 252 253 254 255 258 261 265 270 273
235 232 230 228 228 229 226 223 223 225 224 221 221 221 220 223 225 224 223 223 225 229 230 231 232 233 233 233 233 232 231 232 232 233 235 236 237 237 238 239 240 241 241 240 240 242 243 245 246 249 247 239 234 232 230 228 222 223 230 227 223 229 228 226 227 225 232 241 237 231 233 236 238 244 250 255 258 259 259 259 259 262 266 270 274
239 236 234 232 231 233 231 225 218 221 226 225 224 225 222 222 227 228 228 228 229 232 233 234 234 233 234 234 234 233 233 234 234 234 234 234 236 238 238 238 238 240 241 240 239 239 241 245 246 247 246 243 242 239 235 238 232 225 233 234 225 226 227 225 227 226 229 240 244 240 239 241 244 247 251 256 258 257 258 258 260 263 266 270 275
241 237 236 234 233 236 238 233 224 223 227 227 227 227 224 224 226 229 231 232 233 235 235 235 235 235 235 235 235 235 235 236 236 236 236 236 237 237 238 238 238 238 239 239 240 240 241 245 247 247 246 242 244 244 241 245 240 227 230 236 229 228 229 227 228 229 230 237 240 241 244 247 249 249 248 250 253 254 255 257 259 261 265 272 278
241 239 237 237 236 238 239 238 234 231 231 230 230 229 228 227 227 228 231 233 235 237 238 238 238 237 236 236 237 237 237 237 238 237 237 237 239 240 239 238 238 238 238 239 239 241 242 244 244 245 245 242 240 239 236 240 240 232 229 233 234 233 233 233 234 233 234 234 232 235 242 245 248 250 248 248 252 255 256 258 260 262 267 276 283
242 241 240 238 238 238 239 238 238 236 235 233 232 231 230 229 229 230 233 236 237 239 240 240 240 239 239 240 241 240 240 241 241 241 239 236 236 239 239 238 237 237 237 238 238 239 240 242 243 242 243 243 238 236 235 236 239 239 235 235 239 239 238 241 243 237 232 232 231 234 239 237 237 242 246 251 256 257 256 256 259 263 268 278 286
241 241 240 237 235 235 237 237 236 236 235 234 234 233 231 232 232 233 235 238 239 239 240 240 239 239 241 243 245 245 244 243 244 245 246 244 241 240 240 238 237 237 238 238 238 239 239 240 242 241 242 242 239 237 239 238 239 241 240 237 239 242 240 241 244 239 233 236 238 239 239 235 231 236 245 253 255 257 259 261 263 268 275 284 290
239 239 238 235 232 233 235 234 233 235 237 235 234 234 233 235 236 236 236 238 240 241 242 242 243 244 245 244 246 248 249 249 248 250 253 254 251 248 245 242 239 238 240 241 240 239 238 240 242 241 241 242 241 240 240 238 237 241 243 239 236 238 241 241 241 239 241 246 245 240 238 241 245 247 251 255 254 253 257 262 262 266 276 287 290
238 238 237 235 234 234 235 235 235 239 242 241 238 236 235 235 235 235 236 238 242 244 245 246 247 248 248 248 247 247 250 252 253 253 256 258 257 254 251 249 245 242 242 244 244 243 240 240 242 242 240 241 242 240 240 239 235 234 242 246 241 239 244 244 240 242 250 253 247 241 241 245 252 255 255 254 252 249 254 259 259 264 275 284 285
238 238 236 235 237 237 237 238 239 241 246 246 243 239 237 235 234 235 237 238 242 247 248 248 249 248 250 252 252 251 251 252 253 254 255 258 259 258 256 254 250 247 245 245 246 246 245 243 242 242 242 241 240 239 238 239 239 238 242 247 242 238 242 244 240 242 251 252 246 246 248 244 244 252 256 254 249 247 252 256 260 270 280 283 283
238 237 236 234 237 239 240 241 242 244 248 250 248 241 237 236 235 237 239 239 241 245 248 250 252 253 256 258 259 260 260 257 256 256 256 257 259 261 261 259 255 252 250 248 247 246 246 246 244 244 244 244 243 242 238 235 240 245 244 237 232 236 242 246 245 242 244 247 249 251 252 247 243 247 252 253 248 247 251 257 265 276 283 283 285
239 238 238 237 237 238 239 240 242 244 247 250 249 241 236 236 236 237 240 241 243 246 250 252 254 256 258 260 260 261 262 260 258 257 255 254 255 256 258 260 260 260 257 254 250 247 246 245 245 245 245 245 245 245 242 237 239 244 242 237 239 246 248 247 247 245 243 247 251 249 247 248 247 245 247 249 249 248 252 260 270 279 284 286 289
242 240 241 241 241 239 239 238 239 240 244 248 247 241 236 234 234 237 241 244 247 249 250 252 253 255 257 258 258 258 258 259 258 257 256 256 255 255 255 257 261 264 263 259 255 253 251 249 248 246 246 246 245 245 244 241 239 241 242 243 244 247 248 246 246 246 244 244 246 247 247 247 246 246 248 248 248 250 253 257 266 276 282 288 292
243 243 244 245 244 241 240 238 238 240 242 246 247 244 240 237 236 239 243 246 249 251 252 254 255 256 257 256 257 257 257 258 259 261 262 261 261 262 261 260 261 263 263 261 259 258 256 253 251 249 248 247 246 245 245 243 243 242 241 242 240 238 240 243 245 246 244 242 243 244 246 248 246 246 248 248 248 251 254 256 261 269 277 286 292
245 245 246 247 245 243 241 239 240 242 243 245 247 246 242 239 239 242 245 249 252 255 257 258 257 257 257 257 258 259 258 260 261 263 265 265 264 264 264 264 263 262 260 260 260 259 258 257 255 253 251 249 247 246 244 245 246 243 239 238 236 232 234 239 243 244 243 242 241 237 239 245 247 244 246 250 252 252 253 257 258 263 273 285 290
248 247 246 246 245 244 243 242 242 243 244 245 247 246 242 239 241 243 246 250 253 256 259 260 259 258 259 261 262 262 262 264 265 266 266 265 264 264 264 265 264 262 260 259 258 257 257 256 256 254 253 252 249 247 244 243 245 245 242 239 236 232 233 237 239 238 237 239 239 235 237 242 243 242 244 250 254 254 254 255 252 255 270 283 288